Theta_e
312 311 312 312 313 314 314 315 316 316 317 318 318 318 319 319 319 319 319 318 317 317 317 317 317 317 317 317 318 318 315 298 292 292 293 295 306 314 314 315 314 315 312 298 299 298 295 296 298 298 296 291 293 291 292 295 295 296 294 290 288 289 293 294 296 295 301 300 299 300 301 303 300 302 304 304 301 301 300 299 301 302 300 301 303 304 306 308
311 311 312 313 314 315 315 316 317 317 317 318 318 318 319 319 319 319 320 320 319 318 317 318 317 317 317 318 319 318 302 296 292 291 293 304 312 313 314 314 314 315 310 297 296 295 295 295 296 296 292 290 294 290 294 293 294 289 286 290 292 290 295 296 297 300 301 296 297 298 299 298 297 301 301 296 294 295 295 297 298 297 299 301 301 302 303 302
311 312 312 313 314 315 316 316 317 317 317 317 318 318 318 318 319 319 319 320 320 319 318 317 318 317 317 319 316 315 302 293 292 290 295 309 312 312 314 314 314 313 300 298 297 296 296 296 295 295 292 290 292 289 289 292 295 290 291 289 289 294 296 298 299 299 300 298 296 295 295 294 295 298 301 295 293 293 291 291 294 294 294 297 299 299 300 298
312 312 313 313 314 315 316 317 316 317 317 317 317 318 318 318 318 319 319 319 319 319 318 318 318 317 317 318 314 297 293 288 285 291 295 312 312 313 313 313 314 307 299 298 299 296 297 297 295 295 290 288 288 289 289 292 293 291 289 287 294 295 295 297 300 299 299 299 295 294 294 293 293 295 299 299 296 291 291 293 292 292 293 295 297 296 297 295
312 312 313 313 314 315 316 316 316 316 317 317 317 318 318 317 318 318 319 319 319 319 318 318 318 317 317 315 311 296 290 280 283 292 298 311 313 314 314 313 314 298 298 297 298 297 296 296 294 291 289 287 287 288 287 289 292 290 292 292 296 297 295 296 297 298 297 297 295 294 292 291 294 293 291 292 289 288 291 293 293 293 294 294 294 294 295 294
312 312 312 313 314 315 315 315 316 316 316 316 317 317 317 317 318 318 318 319 319 319 318 318 318 317 317 313 294 291 286 273 292 294 313 311 313 312 313 313 311 301 298 297 296 295 295 294 292 288 285 285 286 285 288 287 291 289 289 292 296 298 295 295 296 295 296 294 293 291 292 293 291 290 291 290 288 291 295 294 294 294 294 295 295 294 292 292
312 312 312 313 314 314 315 315 316 316 317 317 317 317 317 317 318 318 318 319 319 319 319 318 318 317 315 311 294 292 288 287 291 297 309 311 312 310 311 308 313 297 296 295 294 295 292 291 290 289 284 284 285 285 289 289 288 290 290 293 293 296 294 295 294 295 295 294 292 295 296 292 291 287 292 289 291 293 294 294 294 294 294 294 293 293 292 291
312 312 312 313 313 313 314 314 315 315 316 316 316 316 317 318 318 318 318 318 319 319 319 318 317 316 310 293 292 286 284 288 295 296 308 309 303 301 303 297 297 296 295 295 294 293 292 291 290 289 285 284 287 287 290 287 289 292 289 291 292 293 293 294 294 293 293 292 293 293 290 289 290 289 291 289 292 293 293 294 294 293 293 293 292 292 291 291
311 312 312 312 312 313 313 314 315 315 315 315 316 317 317 318 318 319 319 319 319 319 319 317 315 317 309 292 287 283 284 293 295 298 298 296 296 296 295 298 295 295 294 294 294 294 293 290 291 291 288 286 290 288 288 287 288 289 291 292 292 292 293 294 293 293 293 293 293 290 288 290 291 293 288 291 292 294 293 293 293 293 292 292 291 291 291 291
312 312 312 312 312 312 313 313 314 315 316 316 316 317 318 318 318 319 319 318 317 317 317 317 316 310 297 290 286 283 291 295 296 297 296 295 295 296 295 296 295 295 294 294 294 293 293 291 293 294 290 289 290 289 289 286 287 294 292 293 292 292 293 293 291 291 292 291 291 288 287 288 292 291 285 291 293 294 292 291 292 291 290 291 291 291 291 291
311 312 312 312 312 312 313 314 314 315 316 316 316 317 318 318 318 319 319 316 316 315 317 316 314 309 294 289 283 282 296 296 297 297 297 295 295 295 295 295 296 294 294 293 294 294 293 294 294 294 291 289 291 288 288 290 295 293 293 292 291 292 293 293 292 291 293 290 292 290 287 289 290 289 286 289 293 293 292 290 290 290 290 290 291 291 291 291
311 312 312 311 312 312 312 313 314 315 315 316 316 317 317 318 318 319 319 314 315 315 316 315 313 296 290 286 284 288 296 297 296 296 297 296 295 295 296 297 295 295 295 293 294 294 294 294 295 292 287 294 287 289 291 294 294 293 293 288 290 294 292 293 293 292 292 291 294 293 291 285 286 284 289 292 292 292 292 290 290 289 290 290 290 290 290 290
311 311 312 311 312 312 312 313 314 315 315 315 316 316 316 317 319 319 317 312 315 315 313 312 306 296 292 286 288 295 295 296 298 296 296 296 297 299 299 298 297 295 295 295 294 296 294 295 294 293 293 288 289 284 291 294 293 294 294 292 291 291 289 291 295 292 291 292 293 292 281 282 284 287 290 292 291 291 290 290 290 289 289 289 290 289 290 290
311 312 311 311 311 311 312 313 314 315 315 315 315 315 315 316 317 319 316 311 313 312 309 309 297 292 292 285 292 297 298 298 298 295 294 297 296 297 299 300 300 299 297 297 295 295 296 294 295 294 294 291 290 296 293 292 294 290 293 294 289 288 285 291 291 290 288 291 292 291 281 281 284 287 290 293 292 290 287 288 289 289 289 289 289 289 289 290
311 311 311 311 311 312 312 313 314 315 315 314 313 313 313 314 317 319 315 310 310 312 313 305 295 295 287 287 293 298 308 301 295 294 296 294 294 296 297 300 299 299 298 299 296 297 296 296 295 291 289 294 294 291 289 289 290 292 290 286 290 288 287 289 291 290 286 290 292 290 280 281 284 286 289 292 291 290 287 287 288 288 289 289 288 288 288 288
311 311 311 311 311 311 312 313 314 315 314 312 312 312 312 315 317 316 311 307 307 311 297 293 291 288 283 283 292 303 293 291 292 295 296 295 295 294 298 299 297 297 297 295 297 297 295 296 291 290 291 291 289 289 288 287 286 289 290 287 285 287 285 287 289 290 290 287 289 290 280 282 283 287 289 291 292 289 286 286 287 287 289 289 289 288 288 287
311 311 311 311 311 311 312 313 314 314 311 311 311 311 314 314 314 317 312 307 299 301 297 291 289 292 285 291 297 291 289 292 294 293 294 295 296 299 299 297 295 294 296 295 295 295 294 292 291 289 287 286 283 289 286 284 284 285 290 286 287 285 286 284 288 289 289 287 283 287 283 283 284 287 288 289 289 289 286 286 286 287 287 288 289 289 289 289
310 311 311 311 311 311 312 313 313 310 310 309 310 310 308 312 310 311 302 300 294 295 293 293 290 287 284 291 286 287 292 290 292 292 293 295 298 299 298 295 293 292 292 291 292 290 292 287 287 284 279 283 284 286 284 280 284 285 285 284 282 284 285 283 283 285 287 286 283 283 283 283 284 286 287 288 288 286 285 286 285 285 286 286 287 287 288 287
310 310 310 311 311 311 312 313 311 308 309 308 308 312 311 309 293 292 291 291 289 284 281 284 285 277 276 286 289 289 290 293 292 292 292 293 295 298 297 297 294 290 286 285 287 289 287 285 285 279 276 281 282 281 286 287 290 288 287 286 285 283 282 282 284 287 287 283 282 282 280 281 284 285 285 286 286 284 284 285 285 286 286 286 286 287 285 286
310 310 310 310 310 311 312 313 309 308 307 298 288 291 287 285 282 283 287 288 285 285 285 286 286 285 284 285 287 292 294 293 289 291 293 294 294 293 291 293 290 290 286 282 283 286 286 280 279 275 278 281 282 279 282 283 290 288 287 285 283 282 282 285 285 287 288 284 282 282 282 282 283 284 283 284 284 283 282 282 283 283 284 285 285 285 285 285
310 310 310 310 310 310 311 312 308 308 305 288 288 287 285 282 280 279 284 286 285 284 284 284 285 286 285 288 288 289 287 287 290 290 292 296 293 291 288 287 285 284 284 284 284 287 286 281 278 279 278 280 280 282 284 288 289 287 285 283 282 283 281 285 285 287 289 284 281 283 281 280 280 281 282 283 282 281 281 281 281 282 282 284 284 284 284 285
309 310 310 310 310 311 311 311 306 306 303 291 289 285 284 285 287 287 285 280 284 284 283 285 285 286 288 287 288 289 287 284 288 289 294 294 291 288 286 285 282 281 283 283 284 280 280 278 279 280 279 282 282 282 287 287 286 287 285 283 281 281 284 285 286 287 286 284 280 283 280 279 280 281 282 282 281 282 283 283 282 282 282 283 283 283 284 285
309 309 310 310 310 311 311 310 305 303 290 290 287 287 287 291 291 288 286 281 280 283 284 286 286 285 287 289 288 290 285 283 281 287 290 291 289 288 286 284 282 282 283 282 280 279 277 276 282 282 281 282 283 287 288 287 287 285 284 283 279 283 282 279 283 284 285 284 281 281 279 280 282 283 283 284 283 283 285 284 284 284 283 282 282 282 283 283
309 310 310 309 311 311 310 311 304 296 289 288 288 288 291 289 289 291 284 278 277 281 284 285 286 285 285 285 288 287 284 284 283 284 292 290 286 288 283 283 282 283 280 280 281 280 277 281 284 282 285 287 285 286 286 285 281 281 285 283 282 283 283 282 280 283 284 284 284 282 281 281 282 280 281 283 285 285 285 285 284 285 284 283 282 282 284 283
309 309 310 310 310 311 308 306 293 289 288 287 285 291 290 290 290 289 282 275 276 280 286 286 287 286 287 290 289 285 283 285 285 288 290 290 286 287 285 287 285 281 281 282 283 282 282 285 285 285 286 287 285 283 283 285 282 282 281 281 284 283 282 282 284 283 282 281 285 283 279 279 281 282 281 282 283 282 283 282 282 282 282 282 280 280 282 284
308 309 310 310 311 309 306 292 287 287 287 285 288 291 290 288 289 283 276 263 267 277 283 279 288 284 292 286 287 284 285 282 288 290 293 292 294 287 288 284 286 281 282 282 281 281 282 287 284 285 286 285 284 283 281 283 282 281 279 282 284 283 283 283 283 284 279 278 284 286 279 276 281 279 281 281 281 282 283 282 282 282 283 283 282 282 280 280
308 309 309 310 310 307 289 285 288 288 284 284 288 289 289 290 290 289 282 261 266 278 277 284 285 283 289 286 285 285 273 278 289 292 289 293 288 292 284 282 285 285 283 283 283 280 285 284 285 285 284 283 283 283 283 282 282 277 282 285 285 284 283 283 282 281 279 283 283 283 282 278 278 281 282 282 280 281 281 282 283 283 283 283 283 282 281 280
308 309 310 310 309 303 289 288 286 284 286 288 289 287 287 288 288 285 269 258 261 280 275 279 284 289 287 286 285 281 281 284 281 287 291 291 292 289 286 282 283 284 285 285 275 282 284 283 283 283 283 282 280 280 282 282 282 281 285 285 282 281 281 281 282 281 281 280 276 280 280 279 278 279 279 280 278 279 280 281 282 282 282 282 282 281 281 281
308 309 309 311 307 303 291 288 286 287 288 289 288 289 288 284 280 275 260 261 270 273 287 281 292 286 285 285 282 280 280 283 279 285 289 292 291 287 283 281 284 285 286 286 280 283 284 283 283 283 283 280 283 284 286 285 282 284 286 286 284 285 283 281 280 280 277 275 273 277 277 272 275 278 278 278 278 278 279 280 280 281 281 281 281 281 281 280
309 309 310 310 299 292 288 287 290 290 289 288 288 287 286 281 277 271 264 258 273 270 279 281 282 279 280 278 279 281 279 279 282 283 287 286 287 288 285 286 283 286 283 285 283 283 284 290 288 283 282 284 286 286 287 287 287 289 288 286 284 283 281 279 278 278 277 270 273 277 275 275 270 276 277 276 277 279 279 278 279 280 281 281 281 280 281 281
309 309 310 307 291 291 287 284 287 289 288 288 288 287 282 275 267 258 256 265 276 271 280 278 277 281 277 275 274 280 279 279 280 282 281 285 283 284 283 283 284 285 284 284 283 284 284 284 282 284 287 288 289 285 287 288 287 287 283 283 283 281 282 279 274 276 272 265 271 274 274 274 269 274 278 280 279 279 281 279 280 281 281 282 281 281 281 280
309 309 309 297 296 290 288 287 289 288 288 289 284 278 279 270 270 267 262 278 265 273 273 274 277 277 277 276 275 276 275 278 279 279 278 279 278 278 277 275 274 275 277 278 279 284 282 281 283 285 288 284 283 285 284 286 286 285 282 280 276 270 275 273 269 271 261 265 273 274 274 272 273 275 276 280 282 280 280 282 282 282 282 282 282 281 281 280
308 308 306 300 298 287 289 290 289 288 288 287 280 274 266 266 261 262 264 267 265 274 273 279 276 277 275 274 275 276 276 274 278 278 278 278 277 277 279 278 278 277 275 277 278 281 281 285 282 283 286 285 284 282 282 283 283 282 279 276 272 269 267 269 262 260 260 269 272 274 274 272 274 276 276 278 282 284 282 282 282 283 283 283 283 282 281 280
308 307 292 296 293 292 292 291 289 289 288 285 279 279 271 270 263 277 265 261 269 274 275 275 277 275 273 273 275 276 273 276 276 276 278 274 276 273 276 278 278 276 275 276 274 275 275 275 279 280 279 284 282 281 281 282 281 280 281 279 274 267 265 265 259 264 265 266 270 272 270 264 271 276 279 278 280 281 282 282 282 282 281 282 281 280 279 279
307 295 290 287 288 289 289 287 289 289 284 283 281 269 268 258 258 261 262 260 266 272 275 276 270 271 271 273 274 276 277 272 276 275 275 275 271 270 272 275 277 277 276 273 275 272 273 274 280 283 282 280 279 281 282 280 280 279 278 279 275 270 271 265 263 257 258 264 267 269 268 270 274 277 279 278 278 280 282 282 283 282 282 281 281 281 281 281
300 290 288 285 290 289 289 289 286 288 285 284 278 273 267 263 267 267 269 277 276 274 276 273 270 268 267 271 271 275 277 273 276 270 267 273 274 273 275 275 276 276 274 272 274 270 274 274 279 280 281 279 279 280 279 280 274 279 276 271 276 276 272 264 263 265 265 262 264 264 272 274 276 278 276 278 280 280 280 281 281 281 282 280 281 282 281 281
288 289 289 287 288 290 289 288 290 284 284 283 276 266 263 268 273 273 279 277 278 277 269 268 270 269 264 265 267 274 275 274 273 270 269 271 267 275 274 275 278 277 276 275 270 275 267 272 276 277 277 279 278 278 279 279 280 277 275 276 277 275 268 266 263 256 256 261 263 265 268 271 271 270 276 278 278 279 279 280 280 281 281 281 282 283 283 282
287 289 291 288 288 289 288 287 285 286 285 282 274 276 263 273 276 277 277 277 278 276 269 269 269 272 267 265 269 272 275 270 273 263 261 272 264 277 275 276 277 277 277 274 272 272 273 269 275 275 275 276 278 279 278 280 280 279 279 277 278 267 268 266 263 260 260 259 256 263 268 268 272 274 275 275 277 279 280 280 279 281 282 282 283 283 283 282
282 282 283 287 289 289 287 286 286 284 281 276 269 279 272 270 276 274 275 279 278 277 271 272 268 271 273 268 269 271 271 269 272 263 259 268 262 276 277 276 275 278 277 275 272 274 271 266 271 273 276 276 276 276 266 274 279 277 276 275 272 271 266 262 264 261 259 258 257 264 262 266 273 274 275 277 278 279 280 279 280 282 283 284 284 284 284 283
285 283 280 287 289 287 288 288 287 281 278 273 266 269 267 267 276 278 278 279 275 275 272 273 270 270 272 271 272 267 271 271 271 268 267 272 270 276 276 278 275 277 277 277 276 275 271 268 263 273 275 275 272 274 272 274 272 274 274 271 272 269 272 270 263 266 266 256 255 257 259 263 270 274 275 277 277 279 280 281 282 282 283 284 284 284 284 283
280 279 280 287 289 288 288 286 278 272 270 264 269 271 267 274 279 280 278 278 277 276 278 275 275 270 271 271 269 272 269 271 271 269 269 270 273 266 275 277 277 275 276 274 276 275 264 264 266 266 270 270 271 276 276 274 274 273 273 272 272 269 265 264 262 266 260 264 256 255 262 265 272 276 276 276 277 278 279 280 281 282 282 282 283 284 284 284
281 274 281 288 288 287 285 280 271 266 272 271 273 275 278 284 276 277 276 277 278 277 274 276 275 273 271 270 273 270 270 267 270 266 270 271 275 274 277 275 275 275 275 273 275 276 273 266 267 266 267 271 276 276 273 276 276 276 274 273 269 267 260 252 261 262 259 263 262 260 260 260 271 275 276 277 277 277 278 279 281 282 282 282 283 283 284 284
280 278 286 287 287 287 283 272 273 276 274 275 276 278 279 280 276 276 276 277 275 277 274 274 275 275 274 276 273 269 272 268 271 269 272 272 272 275 276 274 276 276 275 273 274 274 279 260 262 262 262 269 272 270 270 266 276 275 273 273 273 271 272 264 266 266 262 260 262 258 258 265 273 275 276 277 276 277 277 277 279 281 281 281 281 281 282 282
279 278 283 289 287 286 276 271 269 269 271 273 273 275 275 278 276 277 275 273 278 276 275 276 276 275 275 276 275 273 274 266 273 272 270 273 274 275 273 274 276 276 276 275 274 275 267 264 261 254 255 257 261 263 268 267 267 263 271 272 272 273 270 264 261 256 264 261 260 259 261 263 276 276 274 276 276 277 277 277 278 279 280 281 281 281 280 280
280 279 279 283 288 282 274 268 275 271 274 272 270 272 272 275 278 279 279 276 275 275 273 273 278 277 274 275 271 275 275 272 268 274 273 274 275 275 275 274 276 275 278 281 283 277 270 265 264 259 257 259 261 257 261 260 263 267 270 271 272 271 269 269 268 257 261 263 264 262 260 269 273 274 274 273 275 277 278 277 277 277 279 280 280 280 280 280
278 277 278 280 282 281 276 273 273 273 271 269 270 272 273 273 278 276 278 277 277 276 275 276 273 277 271 272 270 270 271 274 271 271 272 271 273 274 275 274 274 276 282 283 279 273 263 263 258 254 252 256 259 262 266 275 268 267 267 270 271 270 270 269 264 260 265 259 262 265 266 271 275 275 274 274 274 275 277 279 279 279 279 279 279 280 280 280
278 274 272 275 272 280 272 274 271 272 273 274 269 273 272 274 275 277 279 275 279 278 276 274 270 273 274 274 271 270 273 271 271 270 272 273 273 275 275 274 274 279 284 282 277 266 258 263 266 263 260 263 267 266 270 274 268 267 268 269 270 270 268 266 265 266 266 264 263 265 267 269 274 275 274 274 275 276 276 277 278 279 279 280 280 280 283 281
278 275 272 275 276 275 274 276 274 275 276 274 270 273 273 274 275 274 279 279 278 277 275 274 270 271 274 274 273 268 271 269 268 269 273 274 273 273 275 276 274 278 279 274 275 271 263 266 266 265 260 266 268 268 269 268 269 269 268 268 268 269 269 265 264 267 267 264 268 268 267 269 274 276 277 277 277 277 277 278 278 278 279 279 279 279 280 280
277 275 275 279 274 271 272 276 278 276 275 274 273 273 271 273 274 276 275 276 274 274 275 271 272 273 273 272 272 270 271 267 268 269 269 271 270 269 269 271 276 275 276 272 271 265 265 265 266 267 267 265 265 267 267 267 267 267 267 270 271 268 270 270 266 266 268 268 268 269 269 271 274 276 277 278 278 277 278 277 278 278 278 278 278 278 279 280
277 277 275 277 277 272 271 275 276 275 274 280 271 274 273 273 275 276 276 274 272 274 277 273 274 272 273 270 270 271 274 273 274 270 274 273 265 271 270 273 272 275 274 271 270 267 272 267 274 267 263 264 265 269 267 267 266 265 269 269 270 270 269 270 268 267 266 268 269 270 270 272 277 277 278 278 276 276 277 277 278 278 278 278 278 278 279 279
281 278 282 281 275 275 279 275 276 273 272 273 270 274 277 275 276 276 277 278 276 274 276 274 274 274 273 270 271 272 276 276 274 275 276 273 270 276 271 269 275 269 272 271 267 268 269 264 261 260 266 266 265 264 265 264 264 264 267 268 267 267 266 267 269 271 270 270 265 268 267 271 276 275 276 276 276 276 278 278 278 279 278 278 278 279 279 280
278 281 279 280 274 279 277 275 273 275 272 274 275 275 279 277 276 277 275 277 277 278 278 276 275 274 271 271 272 275 277 276 277 277 277 276 276 275 276 275 276 274 271 272 271 271 266 259 262 260 263 260 265 265 265 264 264 267 267 268 269 270 271 270 273 273 275 272 269 266 272 275 276 278 276 276 276 277 277 278 278 278 279 278 278 279 280 280
Wind_Speed
14 14 14 15 15 15 15 15 15 15 15 15 15 16 15 15 15 15 14 14 13 12 12 11 10 11 11 10 9 9 5 2 3 3 6 3 6 9 11 11 13 10 10 4 7 10 5 6 9 10 4 3 2 2 2 1 1 1 3 5 4 3 6 2 5 5 8 11 2 8 3 14 13 4 5 9 17 14 15 17 10 15 16 12 9 8 7 6
14 15 15 16 16 16 16 16 16 16 16 16 16 16 16 15 15 15 15 14 13 12 12 12 12 11 11 12 11 4 5 2 2 3 1 6 12 11 11 12 12 10 8 5 4 3 5 7 6 7 4 1 2 0 1 1 1 3 2 2 8 3 0 0 2 8 12 6 9 11 9 9 9 2 2 14 11 11 15 13 13 14 14 13 12 11 10 9
15 16 16 17 16 16 16 16 16 16 16 16 16 16 16 16 16 16 15 14 13 12 11 11 11 11 11 11 8 3 1 2 2 2 3 10 12 12 12 12 11 9 3 1 0 1 1 2 2 2 3 2 5 1 2 0 1 1 5 4 2 4 3 7 2 6 10 19 17 16 9 18 7 7 3 11 12 18 17 11 12 14 13 14 13 12 11 10
16 17 17 17 16 16 16 15 16 16 16 17 17 17 17 17 17 16 15 14 13 12 11 10 11 10 11 8 4 2 3 2 1 2 3 9 13 12 11 11 11 5 3 2 1 0 1 2 1 2 1 5 3 1 2 1 2 1 3 3 3 3 4 7 10 13 8 16 16 15 14 21 15 12 4 8 18 14 11 12 10 9 11 11 11 11 9 16
17 17 17 17 16 16 15 16 16 16 17 17 17 16 16 17 17 16 15 14 12 11 10 10 10 10 10 5 3 2 2 4 2 2 6 12 13 12 10 8 8 3 3 3 2 3 3 4 1 3 3 1 2 2 0 1 0 3 1 1 7 7 12 4 9 11 14 8 20 11 18 13 6 21 18 17 16 7 8 10 11 9 9 9 10 10 10 18
17 17 17 17 16 16 16 16 16 16 16 17 17 17 17 17 17 16 15 13 11 10 9 9 9 9 8 4 4 4 4 2 0 4 7 13 13 12 10 8 5 4 2 5 2 2 3 4 3 2 2 2 1 5 1 1 1 5 2 3 3 6 14 3 7 7 10 10 13 13 9 14 18 14 12 21 17 10 9 9 10 10 10 10 9 9 14 16
17 17 17 16 16 16 16 16 16 16 17 17 18 18 17 16 16 15 14 12 11 9 7 8 8 7 7 6 3 8 3 2 2 8 8 12 12 10 8 7 5 6 5 3 3 1 1 3 4 0 1 3 1 2 1 0 2 7 3 3 9 10 16 8 12 12 13 23 17 14 14 15 14 22 8 21 13 13 11 10 10 10 11 10 11 13 13 14
17 17 17 17 16 17 17 17 16 17 18 18 19 18 17 16 15 14 14 12 10 8 6 5 5 6 6 2 2 3 3 3 7 3 9 11 9 8 7 2 4 3 4 1 1 0 1 4 3 1 4 5 1 1 0 5 6 8 6 7 9 15 14 13 15 18 23 19 18 21 24 15 20 13 15 15 13 12 12 10 9 9 10 10 14 12 12 15
17 17 17 17 17 17 17 17 17 17 18 19 19 19 18 16 15 13 12 10 7 7 6 3 3 3 6 5 2 1 3 3 5 3 6 7 8 7 5 1 3 4 3 1 1 1 2 2 1 1 3 1 0 2 1 4 4 1 8 9 12 14 14 13 16 15 18 11 18 25 15 6 8 15 21 12 13 10 9 11 11 9 12 13 11 10 14 16
17 17 18 18 18 18 18 17 18 18 18 19 20 20 19 17 15 14 12 10 7 7 6 1 3 5 5 3 3 7 2 6 4 3 5 5 6 5 7 1 2 5 3 1 2 2 0 2 2 3 5 2 0 1 0 3 5 11 16 18 19 12 14 6 17 12 12 11 15 26 16 15 13 5 8 11 10 9 9 11 9 10 13 13 8 12 15 14
18 18 18 19 18 18 19 18 18 18 19 20 20 20 19 18 15 13 12 9 9 8 5 4 3 2 2 2 2 4 2 5 2 5 7 5 7 7 4 3 1 2 6 2 0 0 2 3 2 2 2 1 2 2 4 4 16 16 19 20 18 15 16 12 12 11 10 10 14 28 19 17 9 14 8 7 7 8 8 8 9 10 12 10 13 13 11 11
18 18 18 19 19 19 19 19 19 18 19 19 20 20 19 17 15 12 11 7 7 7 5 5 5 5 4 3 1 0 1 2 3 4 6 6 5 2 4 3 1 3 4 2 0 2 1 1 1 1 1 0 2 5 7 10 15 17 26 19 15 12 11 7 3 3 1 12 5 4 22 20 18 8 7 4 5 6 7 8 9 11 11 11 10 10 10 12
18 18 18 18 19 19 19 19 18 18 19 19 19 19 18 17 15 12 10 7 5 5 4 5 4 4 2 4 3 7 2 4 4 6 7 3 2 3 3 3 5 2 3 6 1 0 1 0 1 4 1 3 1 2 3 6 12 11 17 16 12 12 10 11 4 4 2 2 3 3 7 6 8 9 7 6 5 4 7 8 8 7 9 9 7 7 10 12
18 18 18 18 18 19 18 18 18 18 18 19 19 18 18 17 14 12 10 6 6 3 8 6 3 2 1 2 5 2 3 3 4 7 7 4 2 2 4 5 3 5 3 7 2 0 2 1 2 3 1 3 1 2 12 6 5 13 11 11 9 13 4 6 5 3 5 8 2 3 10 2 6 7 7 6 5 4 7 7 7 7 7 7 7 8 10 10
18 18 18 18 18 19 19 18 18 18 19 19 19 18 17 16 13 10 12 8 10 4 3 5 6 1 3 4 4 8 3 1 7 12 8 7 2 2 4 6 9 6 5 6 2 2 2 3 1 2 1 1 1 8 10 6 2 10 11 8 5 10 4 3 9 8 3 2 7 19 10 5 6 6 7 4 4 3 7 7 8 7 9 9 8 9 9 8
18 18 18 18 18 19 19 18 18 18 19 19 18 15 11 10 9 10 16 5 5 7 2 2 6 4 3 4 3 7 4 12 12 10 6 3 1 2 2 7 2 5 5 4 3 2 3 2 5 1 0 2 5 8 10 8 2 2 4 10 8 10 5 5 11 6 4 2 13 6 11 9 5 5 5 2 3 3 6 8 6 7 7 9 9 8 8 8
19 18 18 18 18 19 19 18 17 18 18 19 18 8 5 6 10 9 14 10 5 1 6 2 3 0 3 2 2 6 6 6 4 4 8 4 2 5 5 3 3 3 5 5 4 2 3 2 3 1 4 4 1 5 12 8 8 4 4 6 5 14 9 7 4 13 6 10 10 16 16 8 9 6 5 6 6 5 6 7 7 7 7 7 7 7 7 7
19 19 19 18 18 19 19 18 17 18 18 18 12 5 1 4 9 8 10 9 2 4 2 1 2 2 3 7 7 10 9 7 8 6 4 4 3 3 3 2 1 3 2 3 3 3 3 1 4 4 2 4 3 5 10 15 15 14 12 12 9 12 9 8 5 1 18 16 20 16 19 12 8 8 7 4 5 4 6 6 7 7 8 9 8 7 7 7
18 19 19 19 19 18 19 17 16 19 17 15 8 6 3 5 4 6 6 7 7 7 7 9 8 5 1 11 9 7 8 7 4 4 11 7 2 1 3 4 4 2 2 3 2 2 2 3 4 5 3 3 3 1 2 2 4 9 10 12 13 12 6 11 10 6 19 16 14 10 14 10 8 6 4 3 3 5 5 6 6 5 7 7 7 6 6 5
18 18 18 19 19 18 17 15 15 18 14 8 6 2 3 2 3 2 6 6 8 5 3 2 0 3 4 6 7 8 10 4 4 10 13 9 1 2 4 2 2 4 3 2 1 2 1 5 4 2 1 1 3 3 3 1 13 14 14 13 12 16 11 9 11 11 12 20 13 9 13 10 8 6 5 5 5 5 5 5 5 4 5 5 5 4 3 3
18 17 17 18 18 18 16 11 13 16 9 3 1 2 1 0 1 4 4 2 1 1 0 2 3 1 3 6 5 12 10 6 2 13 8 5 2 2 3 2 3 7 4 1 2 1 5 7 2 1 2 4 2 2 1 9 16 16 13 17 10 15 10 4 4 2 4 11 7 6 12 10 6 5 4 4 6 5 3 3 3 3 3 2 3 2 2 2
19 18 17 17 17 17 16 8 11 13 7 4 8 5 2 2 1 0 1 2 2 3 1 3 4 3 1 3 3 4 4 3 16 15 9 14 8 5 4 5 4 5 3 1 2 4 5 4 4 4 3 2 2 0 5 18 19 14 13 13 14 9 11 10 10 8 7 21 6 6 11 7 6 4 3 3 3 2 2 2 2 2 1 1 1 1 1 2
19 19 18 17 16 15 13 5 7 12 6 8 5 2 1 2 2 2 1 2 1 1 2 7 9 11 10 1 1 6 4 11 4 10 11 9 6 6 3 5 7 3 4 3 5 4 5 3 8 4 2 4 5 4 14 15 15 14 9 14 10 9 8 6 7 6 6 5 11 7 11 6 4 3 3 2 2 2 2 2 2 2 1 2 2 2 2 4
20 19 19 18 17 15 10 2 6 7 6 4 5 1 1 2 1 3 1 1 1 4 4 0 1 3 8 8 5 4 2 2 3 15 9 4 4 3 2 4 8 7 7 5 10 11 3 5 6 1 5 12 13 9 16 14 9 4 11 13 12 8 6 10 6 13 19 15 11 10 9 4 3 2 1 2 0 1 1 2 1 1 1 2 2 3 3 4
20 20 19 19 18 15 5 5 7 1 2 3 2 0 1 1 2 2 2 2 3 5 5 1 4 3 7 1 3 1 3 2 4 1 4 5 7 2 2 1 2 5 4 2 9 13 13 10 2 7 8 14 12 9 8 16 11 7 4 8 14 16 18 18 16 15 7 6 4 5 4 2 0 2 2 2 2 1 0 1 2 1 2 2 2 2 2 2
21 20 19 19 17 14 4 3 2 0 2 1 1 1 0 2 2 2 7 4 4 4 6 8 2 7 3 10 11 3 1 5 4 3 3 9 3 1 1 4 2 3 1 3 10 4 2 9 5 6 12 8 7 6 4 3 12 12 1 2 19 18 20 17 13 11 7 10 2 1 1 2 0 3 3 3 3 4 1 1 4 3 3 2 3 3 3 3
20 19 19 18 16 11 2 1 0 1 2 1 1 1 1 2 0 3 2 4 7 6 6 5 4 3 4 7 8 1 5 6 11 7 16 12 6 2 6 6 1 1 1 2 3 7 8 13 9 10 10 8 5 9 6 3 13 5 2 9 17 20 16 10 6 5 7 4 6 5 3 4 2 3 2 3 3 5 5 6 5 4 4 5 5 4 4 3
20 18 18 16 10 9 2 2 1 1 1 0 2 3 2 2 3 1 4 3 4 5 3 6 1 3 6 8 9 5 4 9 3 9 7 12 2 6 11 9 12 13 5 6 12 2 5 6 10 9 10 10 6 3 3 4 8 8 11 8 8 6 6 6 9 10 7 7 4 4 8 3 2 1 2 3 4 7 10 7 6 5 6 6 5 5 4 4
19 18 17 15 4 6 4 2 3 1 1 2 3 4 2 3 5 6 3 5 4 1 4 1 2 3 11 9 7 4 2 5 3 4 10 2 12 2 10 5 10 20 16 17 10 0 4 6 6 4 9 7 3 4 6 9 18 3 12 8 3 7 10 7 6 7 3 6 2 5 5 1 2 0 3 1 3 11 8 8 8 7 7 6 6 5 5 4
18 17 15 12 2 2 3 1 2 0 3 3 4 4 4 4 3 7 6 5 1 4 3 3 4 9 6 10 6 13 12 4 1 6 4 3 10 8 2 1 3 14 12 17 15 5 1 1 4 6 6 2 9 11 11 13 17 15 10 11 8 8 5 3 5 3 5 4 0 1 2 1 1 7 10 10 9 5 5 3 4 4 6 7 6 6 5 5
18 16 14 7 2 1 0 1 2 1 4 4 4 6 3 8 6 6 5 2 2 2 4 5 6 7 11 10 9 10 3 7 11 11 13 16 16 18 12 3 9 9 11 13 11 7 12 10 8 3 4 2 12 15 9 7 9 7 5 5 9 6 4 6 5 6 4 2 4 1 1 2 2 2 4 8 2 4 9 8 9 10 9 8 6 6 6 5
18 15 11 2 0 1 3 4 1 3 4 5 3 5 3 1 7 8 1 5 1 5 2 6 2 3 9 4 3 9 7 6 8 8 8 6 11 15 13 8 7 6 10 6 4 1 15 11 1 2 3 11 5 15 1 4 4 6 6 5 6 1 2 1 6 1 1 4 1 4 4 2 5 4 2 7 10 5 6 7 11 9 7 8 7 7 5 4
17 14 6 2 1 3 1 1 4 4 4 3 2 2 7 7 5 3 2 5 1 2 5 0 6 9 10 4 10 8 2 9 7 8 1 4 4 6 9 14 5 2 8 4 4 9 8 9 17 10 3 9 3 6 5 7 2 2 2 4 6 5 4 3 2 1 4 5 3 3 2 1 3 6 1 4 8 7 7 7 5 9 11 10 8 6 4 4
16 11 1 2 1 2 2 2 4 6 4 2 2 8 7 13 1 2 0 2 2 3 3 3 9 8 4 8 4 5 7 1 8 6 6 3 13 11 12 12 17 11 6 2 6 6 6 6 10 10 5 7 6 6 1 3 2 3 0 2 4 5 4 4 4 2 4 3 2 3 1 3 0 2 2 6 4 4 3 3 2 2 3 2 2 2 3 4
17 2 0 1 1 1 3 2 4 3 4 1 15 7 10 1 2 1 2 3 3 3 3 3 3 4 5 4 3 4 1 3 8 4 13 12 8 3 9 11 12 3 2 5 4 3 5 4 2 2 1 2 4 3 1 2 5 0 2 3 5 0 3 5 5 3 1 1 1 0 3 2 4 1 3 2 1 1 0 2 1 3 4 3 3 4 5 6
6 0 0 1 3 5 4 1 3 1 0 9 12 12 7 1 1 1 0 3 0 3 9 5 0 7 3 6 2 7 6 4 10 6 4 5 4 10 6 3 9 11 7 4 3 4 1 7 4 5 2 3 4 1 1 1 1 2 2 2 1 1 9 7 2 3 1 3 1 0 7 5 7 4 3 2 0 2 0 2 2 5 4 3 5 6 6 7
3 3 2 4 4 6 3 2 3 2 1 13 11 5 1 1 2 2 3 2 3 3 2 5 7 4 5 5 4 11 9 4 6 5 7 1 4 10 7 4 1 5 2 1 3 0 4 3 2 5 4 1 1 1 3 4 0 3 5 5 3 3 7 3 3 3 4 2 2 2 2 7 4 2 2 1 2 5 4 4 5 5 5 6 9 8 9 9
2 2 0 3 5 6 2 0 1 5 7 14 10 6 1 1 0 1 2 3 1 1 4 3 1 6 0 2 8 8 14 7 10 6 1 7 2 2 3 5 2 6 3 2 2 2 2 5 3 0 3 6 4 3 3 3 5 5 6 3 1 0 1 3 5 1 1 0 3 6 3 6 5 5 1 4 6 9 9 6 5 8 8 10 9 9 8 6
2 2 2 4 7 5 3 1 7 7 8 14 1 6 1 2 2 2 2 1 2 1 4 2 0 3 1 2 2 1 7 6 6 2 3 4 5 4 7 2 4 6 5 4 3 1 1 4 1 2 1 2 3 5 4 8 8 4 2 3 1 5 2 3 0 2 5 0 1 1 3 1 7 4 6 6 9 9 7 5 10 11 10 10 9 9 9 8
2 1 2 1 7 3 6 3 9 10 11 9 2 1 1 0 2 5 3 2 1 2 1 2 1 2 3 1 1 2 2 4 3 3 4 4 2 1 6 3 3 12 6 2 3 3 1 1 3 6 3 2 5 5 2 1 4 7 7 5 4 2 1 5 2 3 1 5 2 0 3 4 4 4 3 6 4 5 5 10 10 10 10 9 8 8 8 8
1 3 1 4 11 3 4 17 15 10 8 1 2 2 0 1 2 1 1 3 0 1 1 2 0 3 1 3 3 0 2 3 5 3 2 1 2 2 1 5 5 7 6 3 7 6 3 5 3 3 8 6 2 1 0 2 1 1 1 3 3 1 1 0 1 1 2 2 1 2 2 8 8 2 4 4 4 4 4 6 8 7 8 7 8 8 9 8
1 1 3 5 10 4 7 11 6 0 6 4 1 1 1 3 1 2 1 1 0 1 1 3 2 3 1 1 1 3 1 3 2 2 3 3 3 3 3 5 6 3 2 2 2 3 2 2 7 5 1 1 0 1 2 0 2 1 1 1 1 1 4 3 2 2 2 1 3 1 1 3 2 2 3 5 4 5 4 4 8 8 8 8 9 8 7 8
4 1 2 5 5 3 12 8 2 5 5 1 3 3 2 1 1 2 1 2 0 0 1 3 0 1 1 0 0 2 1 2 3 2 1 1 2 2 4 6 6 3 2 3 1 1 5 6 4 1 6 5 3 1 0 6 1 0 3 2 2 2 1 1 1 3 5 0 0 1 0 4 2 1 3 4 4 4 4 4 7 7 7 7 7 7 8 7
2 0 3 1 6 4 5 3 3 1 2 1 1 0 2 1 1 2 1 1 1 2 1 1 1 1 1 0 0 2 2 2 2 2 2 0 2 1 3 6 6 4 3 1 1 3 1 2 3 1 2 2 2 2 2 1 3 2 0 2 1 2 6 2 5 0 4 4 2 3 1 2 2 1 3 2 3 4 4 4 5 7 7 6 7 7 6 7
2 1 1 7 11 8 3 2 9 6 1 3 1 2 2 1 1 0 0 1 0 1 0 1 0 1 1 0 1 0 2 2 0 2 0 0 2 1 5 7 6 3 2 1 2 3 6 0 2 2 2 2 1 2 2 2 1 2 0 2 2 3 1 3 1 2 1 0 1 1 4 9 7 3 5 4 4 5 4 3 3 5 7 8 7 7 7 5
0 2 6 7 9 8 6 1 4 7 7 3 3 0 1 1 1 3 2 1 1 0 2 1 1 0 1 1 3 5 4 3 3 1 3 3 3 2 2 7 3 3 4 6 5 5 5 2 4 2 2 3 3 2 2 0 1 0 1 0 1 2 2 3 3 2 2 2 3 7 4 8 16 7 3 4 4 3 7 7 6 6 5 6 6 7 7 7
1 4 0 1 4 9 4 4 3 2 4 3 3 1 2 1 1 1 2 0 0 0 2 2 1 1 2 2 1 1 2 1 4 3 2 1 2 3 4 3 5 8 9 1 4 5 4 5 1 5 6 3 2 2 1 1 2 2 1 1 0 2 3 2 1 1 5 3 7 3 3 1 10 7 6 6 6 6 6 6 7 6 6 6 6 6 7 6
1 1 1 1 2 1 2 2 3 5 2 3 1 1 1 1 1 1 1 1 0 0 0 0 7 2 1 2 0 2 5 1 2 2 5 1 2 4 1 1 4 8 6 1 3 2 2 2 2 4 7 5 5 6 2 1 2 3 4 3 2 4 4 4 4 5 6 3 9 2 2 2 11 10 10 10 9 9 11 10 7 6 9 8 6 7 8 9
3 3 1 1 2 1 1 1 4 7 6 4 2 1 1 1 2 0 0 1 1 1 1 1 2 2 2 2 1 2 1 2 3 0 0 3 2 3 4 3 2 3 6 4 5 1 4 1 3 2 4 2 2 2 4 5 1 1 5 7 6 5 7 7 5 4 7 7 5 4 5 12 17 15 13 14 7 5 8 5 6 7 8 7 6 7 8 9
2 3 1 4 7 4 1 2 2 3 5 1 3 0 4 3 2 0 1 0 1 1 1 5 1 0 0 1 0 3 0 1 1 1 1 0 2 1 0 1 5 5 5 3 2 4 0 1 2 2 2 3 1 2 4 0 0 5 5 5 5 5 4 5 1 1 1 7 9 8 9 16 10 4 10 6 3 3 4 5 7 7 7 8 8 8 9 9
0 0 4 9 5 1 1 2 1 2 2 1 3 2 3 2 1 3 1 0 0 0 1 1 5 3 1 3 4 2 1 1 2 1 1 2 0 0 1 1 1 5 8 5 5 6 6 0 2 1 1 1 0 0 1 1 1 4 12 9 7 5 5 4 6 7 6 7 2 1 2 9 8 2 3 4 3 4 6 7 7 7 6 6 7 9 10 9
2 0 3 6 5 1 0 0 1 1 1 2 2 3 1 5 3 3 3 0 1 1 0 4 4 5 1 4 2 1 1 1 1 1 1 1 2 3 2 2 1 2 3 2 3 4 2 2 2 3 2 1 1 0 4 7 2 2 2 4 9 6 3 1 4 4 9 7 5 3 10 6 3 0 3 3 3 6 7 7 8 8 7 6 8 10 10 9
Wind_Direction
8 5 3 358 355 351 349 349 346 345 343 341 338 338 335 335 334 332 330 331 333 335 333 332 329 326 329 333 333 326 34 84 44 27 33 276 285 328 339 332 342 360 21 38 5 28 354 8 5 342 20 53 315 115 273 41 9 61 151 128 168 191 175 206 155 179 132 128 109 71 61 108 108 87 95 37 39 63 58 56 47 50 47 38 9 350 331 310
5 2 359 356 353 351 348 347 345 343 339 338 337 335 334 333 333 331 329 329 327 327 330 331 328 325 332 335 340 28 78 75 74 57 345 297 343 334 338 340 336 24 17 19 26 28 34 354 345 1 35 47 317 44 11 254 71 104 101 129 197 175 155 132 169 137 119 98 101 78 48 72 55 83 32 80 38 37 45 29 26 33 22 14 9 354 356 357
2 0 358 354 352 349 346 345 343 340 339 336 336 334 334 332 332 330 329 328 325 321 325 326 327 326 332 345 0 54 106 23 57 22 293 336 343 340 336 348 344 25 52 304 258 136 61 309 276 18 13 84 356 164 49 249 74 207 117 148 197 206 80 23 100 74 109 124 101 89 64 66 24 62 64 87 77 45 43 16 5 21 7 357 355 359 347 27
1 359 357 353 349 347 345 342 341 341 339 337 334 333 331 331 329 330 329 327 326 322 320 324 321 329 342 357 36 84 72 60 31 259 265 307 343 340 341 343 350 23 78 74 156 111 151 66 59 71 29 64 303 21 109 282 117 221 78 139 176 206 84 359 86 104 96 105 103 101 90 67 45 37 44 136 72 38 34 27 27 10 1 351 348 8 352 45
0 357 354 351 346 344 343 342 342 341 338 333 329 328 329 329 329 330 331 330 326 324 320 319 320 331 348 23 29 77 66 58 264 246 263 332 341 343 342 346 355 52 86 141 73 42 57 59 65 32 83 157 351 37 283 309 127 90 77 239 136 115 71 33 78 90 103 88 101 84 81 108 91 48 40 55 74 54 21 21 24 20 15 1 358 15 26 51
359 355 353 348 345 342 342 342 341 337 333 329 328 328 331 330 332 332 332 332 328 322 319 319 321 327 350 81 47 56 73 52 19 313 307 342 341 345 338 341 7 79 71 41 74 342 34 342 59 28 9 74 190 125 216 192 344 107 356 38 34 112 109 78 84 79 98 92 80 81 82 92 80 78 44 59 58 60 52 35 29 29 20 15 9 26 42 52
356 352 349 347 344 342 342 340 338 334 330 328 328 331 332 334 333 334 332 332 325 317 322 325 322 335 344 91 48 73 78 259 340 272 347 342 339 345 341 343 67 50 62 50 14 67 20 57 71 110 83 70 341 125 185 343 30 94 74 56 47 94 93 94 89 91 83 88 79 93 89 74 95 73 34 60 43 42 42 42 37 35 30 26 27 29 44 55
353 351 348 347 345 344 341 341 337 334 330 329 330 332 333 336 338 337 334 334 325 321 335 336 314 5 0 45 38 348 41 315 279 303 354 340 341 336 346 18 67 68 56 87 133 20 92 44 104 176 60 134 202 131 13 85 35 98 84 89 88 76 91 94 101 96 91 86 97 79 75 73 72 91 58 43 37 35 37 27 33 39 36 36 40 30 36 48
351 349 348 347 346 345 342 339 337 333 331 329 331 332 334 337 338 333 331 340 341 348 347 352 20 83 76 87 97 46 327 246 225 321 9 348 332 346 4 9 24 90 128 72 8 140 98 245 60 180 219 104 147 148 12 105 60 56 114 101 96 95 99 109 92 89 95 97 91 73 65 65 112 71 54 29 13 18 36 33 15 25 36 32 35 29 43 43
350 348 347 346 345 344 343 340 338 334 330 330 331 331 333 335 333 335 342 1 0 3 359 121 85 74 53 74 38 52 274 242 308 7 1 354 342 13 52 71 94 106 92 1 61 48 62 209 166 175 133 83 84 40 297 74 123 118 109 105 100 104 99 62 99 84 80 78 89 84 59 44 28 96 66 33 24 6 36 50 26 36 45 38 23 35 40 38
348 346 345 345 344 344 342 341 337 334 330 330 329 329 330 331 331 335 341 1 6 10 39 98 95 105 60 80 93 33 232 33 357 353 357 7 6 16 350 331 129 82 102 77 35 228 275 156 182 134 46 220 108 343 67 128 124 114 108 90 87 93 91 95 88 110 97 70 79 92 76 55 23 60 74 52 35 25 28 34 45 43 45 32 31 34 40 44
346 344 342 343 343 342 341 338 335 331 329 327 326 325 327 326 327 329 344 6 20 46 68 80 80 104 79 71 118 264 34 300 341 355 355 355 1 308 252 186 141 152 120 140 281 310 186 189 113 51 177 207 135 100 78 132 116 128 110 100 117 108 83 17 21 30 53 134 155 48 64 28 25 59 37 66 55 42 37 36 24 46 47 35 30 37 44 48
343 341 341 341 341 341 339 337 332 329 325 324 322 322 321 320 320 329 354 19 16 78 73 65 76 81 82 10 242 236 296 338 354 7 357 35 93 34 8 68 107 125 151 127 163 326 95 114 80 80 269 100 133 86 167 135 126 122 103 124 120 103 69 355 357 10 33 152 331 5 69 8 24 42 35 36 53 45 48 30 26 35 47 48 37 39 49 46
340 339 339 340 339 339 337 335 331 327 323 321 319 320 318 316 321 323 0 32 16 84 84 66 80 68 78 247 272 275 311 325 19 0 356 357 88 356 16 15 67 86 62 96 100 20 55 50 108 137 84 73 118 275 108 129 140 118 127 114 129 117 87 18 22 330 63 313 273 108 111 130 41 44 35 21 22 48 58 54 36 32 44 41 39 38 46 48
339 338 338 339 339 337 338 334 330 326 322 320 321 320 321 316 321 327 3 16 13 328 178 61 33 64 29 285 259 295 312 33 1 351 347 6 21 49 24 27 38 49 77 89 109 37 72 11 14 43 349 307 61 123 132 124 155 137 122 132 153 122 123 49 27 15 106 15 32 84 75 103 89 72 57 21 25 14 75 63 52 41 46 38 29 31 40 49
337 338 337 338 338 338 337 336 331 326 321 320 319 320 312 319 323 341 9 36 16 8 60 42 1 96 106 25 305 351 40 0 338 318 319 39 58 114 124 85 21 24 43 19 48 53 33 72 75 171 118 21 67 141 134 113 127 202 120 141 130 114 158 117 9 358 38 51 8 122 129 119 85 91 80 42 359 34 65 60 56 54 52 48 38 32 29 28
338 337 337 336 338 341 340 337 333 327 323 323 321 317 301 341 341 349 352 24 6 359 47 35 337 6 70 240 267 14 343 310 336 334 335 4 116 142 117 38 27 47 50 57 31 32 351 64 304 29 28 97 115 153 133 145 150 169 141 125 111 132 154 117 53 24 42 102 59 85 101 89 116 107 81 41 26 18 51 56 52 53 50 62 54 39 30 28
338 337 337 336 340 344 342 338 336 331 328 326 322 301 310 4 12 24 357 358 31 74 103 113 119 50 308 0 9 315 307 307 328 314 314 311 104 131 85 90 37 82 54 58 3 56 342 34 22 151 38 12 48 173 166 166 167 155 144 127 101 68 53 77 102 47 77 72 89 87 88 108 103 99 91 88 63 49 43 40 49 38 51 48 43 42 38 29
338 338 336 338 340 345 343 341 340 338 335 328 310 288 336 77 44 78 47 341 27 0 22 341 17 65 246 301 301 280 306 282 299 6 351 10 335 117 72 95 92 90 93 62 312 76 347 52 35 35 46 352 46 39 127 92 89 124 123 121 122 111 101 103 102 82 96 76 67 62 108 103 80 69 71 78 65 58 52 47 40 34 41 43 48 32 29 28
337 338 337 336 339 343 344 345 345 342 356 356 4 11 16 15 9 331 350 25 53 91 156 258 128 257 295 314 320 294 265 301 357 360 13 4 48 57 56 83 27 60 62 109 135 30 93 76 83 137 219 240 284 193 205 257 95 91 90 95 95 97 83 90 108 141 90 81 49 69 81 79 71 50 44 33 31 38 41 38 32 23 34 42 38 33 4 22
335 335 335 336 337 341 342 349 354 345 18 82 45 58 335 183 43 344 328 315 222 59 84 260 187 46 325 287 310 351 5 330 28 12 19 295 128 71 344 28 25 56 0 3 106 278 69 84 349 224 215 225 221 208 264 116 96 100 101 98 83 91 104 87 103 289 301 106 99 77 81 70 63 57 46 38 51 39 21 30 28 24 26 28 24 2 339 336
334 332 334 334 337 337 341 356 10 356 50 57 61 84 105 122 120 183 94 0 21 213 275 277 205 0 251 249 196 319 128 280 2 1 355 26 344 63 327 85 83 84 349 349 48 31 53 91 289 277 230 209 230 73 139 108 106 104 104 105 94 88 100 78 72 78 80 95 131 111 87 68 56 52 38 58 71 46 38 43 25 23 3 342 338 316 323 336
333 331 331 336 337 335 338 8 43 25 28 29 44 59 50 284 319 253 102 128 316 194 6 11 10 8 345 342 173 13 43 35 311 349 355 16 339 67 315 59 62 85 54 35 106 94 58 323 312 310 155 110 111 101 119 99 103 114 117 110 109 148 126 112 18 40 23 109 141 123 94 81 70 41 29 31 51 73 59 59 28 357 356 334 319 320 323 352
332 331 330 335 337 338 337 47 67 41 35 99 92 93 280 309 327 24 68 125 277 310 69 106 83 349 6 355 345 33 22 309 34 345 350 28 32 285 63 47 73 62 58 65 92 87 121 289 292 137 155 110 110 132 109 108 80 26 118 115 131 149 66 114 105 86 83 73 112 122 86 87 32 41 51 310 11 99 54 24 23 343 293 297 325 349 353 334
334 331 332 333 337 341 338 52 35 38 171 49 48 272 316 207 96 111 92 352 17 340 33 49 42 33 333 206 347 27 305 235 48 239 316 29 333 22 10 196 78 41 60 354 75 58 22 348 346 101 110 113 115 104 100 117 108 85 1 133 129 115 117 115 124 110 76 87 293 318 96 322 245 286 240 188 289 249 159 2 280 280 297 341 327 306 319 307
334 332 332 335 336 339 328 57 309 256 75 74 187 298 61 101 95 83 92 79 36 316 338 12 6 355 342 344 344 311 356 41 9 319 322 0 244 99 291 28 57 87 244 77 86 96 3 356 34 107 104 93 91 81 351 114 120 111 273 135 123 129 127 130 134 108 127 137 200 17 88 181 161 251 219 218 237 264 284 250 265 284 278 269 251 256 257 252
334 331 334 336 340 345 67 308 179 89 38 314 202 160 126 75 55 101 50 2 47 354 0 294 14 320 8 331 313 356 48 306 321 360 8 356 16 268 94 25 6 16 139 185 68 20 350 16 33 43 67 52 64 75 356 48 106 47 27 118 126 129 126 129 106 76 101 90 121 89 3 116 206 249 184 185 240 260 267 253 250 251 253 251 247 247 252 254
333 331 332 337 354 11 151 114 49 61 185 236 136 126 94 123 93 63 79 58 13 316 1 321 25 316 55 321 10 66 168 276 20 341 1 322 351 355 71 45 64 44 6 108 76 255 316 24 23 45 66 54 36 289 283 72 73 118 106 92 69 72 95 92 100 110 120 119 45 5 358 73 280 281 26 132 249 250 247 240 236 240 243 248 250 246 245 242
332 331 332 337 356 64 74 106 119 97 217 136 93 117 93 65 71 92 114 86 273 20 231 328 352 28 340 347 48 39 317 5 69 277 314 282 26 183 57 11 63 69 40 74 98 356 37 42 355 28 59 58 352 11 72 93 100 71 96 80 91 89 65 56 71 97 73 71 91 349 11 122 264 42 213 328 276 246 226 223 227 227 231 236 239 247 245 247
331 330 332 337 51 7 353 26 63 84 100 113 118 100 65 43 38 37 8 57 287 340 16 264 49 306 344 2 346 13 20 350 26 292 357 63 8 35 60 172 86 68 69 65 71 64 143 212 279 50 35 22 69 48 67 70 100 118 88 94 73 57 47 39 64 51 67 39 254 282 297 168 271 223 202 170 223 199 195 239 244 249 247 246 239 239 234 232
332 333 339 353 62 302 99 15 267 180 115 102 98 73 77 43 95 105 62 261 40 271 349 15 340 0 9 12 348 342 25 359 357 9 18 5 13 32 12 51 1 71 60 63 63 50 52 31 37 15 16 24 78 75 23 68 70 73 103 124 109 49 25 41 354 29 95 276 261 281 336 317 162 297 245 226 263 195 176 190 201 217 224 231 235 237 238 235
332 334 345 45 131 75 33 286 201 136 128 133 87 64 99 306 13 65 184 321 60 319 50 305 307 349 329 323 39 343 345 333 29 19 26 6 39 47 22 59 335 55 50 13 62 5 57 46 76 123 85 55 29 83 307 8 27 79 91 43 90 103 50 65 4 48 53 177 309 15 1 12 256 222 223 215 220 230 221 195 196 203 217 228 236 236 237 238
331 331 358 92 40 26 306 294 114 131 109 89 70 60 56 90 46 290 295 335 252 349 299 288 283 340 309 330 7 344 336 48 303 29 332 32 86 83 66 43 349 272 101 302 67 61 65 48 29 353 347 18 30 105 134 97 342 77 73 106 71 84 41 128 306 311 319 288 281 26 330 262 275 302 238 226 229 219 203 217 207 195 203 212 222 228 235 245
327 330 19 312 142 111 308 102 151 130 107 73 76 38 50 60 267 73 176 277 286 3 294 351 316 328 13 55 329 336 5 335 25 355 22 352 38 15 354 25 18 3 54 64 66 342 86 17 13 3 20 348 33 60 39 110 109 66 130 129 156 137 157 163 186 154 207 187 295 312 21 244 51 241 217 231 248 268 257 264 287 285 287 297 313 296 274 264
321 10 207 343 33 357 37 123 141 142 95 140 54 83 83 181 234 256 295 294 300 277 289 302 315 354 339 13 310 358 81 307 23 2 31 36 20 31 357 334 356 38 273 76 334 78 48 96 293 37 276 358 35 343 41 89 74 317 170 78 59 78 147 119 204 143 163 89 10 204 213 189 204 245 282 309 291 300 164 244 263 271 259 269 278 250 241 240
336 302 11 8 15 337 24 86 139 120 147 77 80 51 70 188 4 120 331 174 281 2 305 344 114 38 325 343 296 14 328 75 343 51 1 60 61 37 327 330 7 10 13 83 268 104 346 55 310 317 62 56 15 345 55 251 133 227 55 46 140 118 97 104 57 62 105 52 232 123 308 287 290 310 332 336 325 268 356 247 246 254 257 257 251 245 242 240
16 338 39 319 357 339 347 132 140 96 51 78 78 56 193 300 194 181 330 352 290 305 358 64 340 54 356 332 312 346 332 29 6 61 3 22 4 22 359 318 239 17 54 157 26 285 131 175 301 31 13 56 30 82 52 57 304 63 85 189 111 121 124 122 148 334 55 147 241 29 248 304 18 285 331 0 275 263 256 241 234 246 246 246 238 236 232 231
13 44 190 17 333 317 335 175 88 36 59 73 60 117 241 75 326 207 272 356 352 325 39 62 286 83 299 49 346 358 328 75 335 39 46 4 118 296 0 345 294 52 342 283 121 318 79 62 313 200 222 285 358 66 347 358 44 106 144 167 92 231 44 335 88 54 54 299 288 315 259 249 197 253 354 252 215 234 234 226 230 238 235 236 240 242 244 247
56 79 8 331 335 337 325 127 69 57 74 65 356 90 254 245 237 198 235 261 196 291 68 359 153 358 126 62 252 321 328 39 325 44 74 336 62 15 34 356 294 350 1 6 62 306 47 127 319 287 66 298 27 55 38 315 328 30 39 33 342 87 115 80 114 170 109 215 52 292 44 264 205 224 200 233 217 221 221 222 231 231 229 232 233 237 239 236
14 32 319 318 337 1 347 50 66 42 56 91 190 111 205 157 266 264 241 210 355 46 1 6 6 32 26 147 89 345 323 47 12 321 94 321 95 349 24 2 330 315 356 348 126 224 274 126 98 283 331 49 24 7 93 325 343 336 29 352 4 38 225 115 47 63 10 154 149 239 0 288 277 220 196 245 249 251 216 218 226 232 234 234 236 236 237 233
72 97 276 325 350 341 27 46 40 33 78 242 78 132 49 182 322 276 190 217 226 341 102 129 19 69 276 1 359 113 345 29 22 31 58 345 54 337 12 19 337 320 337 352 39 5 47 10 121 313 20 28 211 16 114 164 189 149 112 119 173 76 64 70 341 80 69 80 217 87 281 267 272 172 225 249 247 239 227 232 253 252 247 239 239 239 231 237
81 43 302 344 351 31 80 48 31 185 91 92 98 165 27 184 26 327 0 349 144 3 353 103 29 111 51 54 211 336 61 33 5 78 342 88 340 99 296 20 327 258 340 47 330 307 123 144 88 53 120 149 336 290 332 250 101 89 115 26 99 102 100 92 91 281 42 40 109 150 141 278 240 215 222 237 253 252 248 215 240 248 246 242 241 240 241 233
48 177 255 349 350 73 64 64 344 45 65 237 295 315 288 344 117 263 37 346 35 101 17 60 229 73 343 8 297 41 44 63 6 34 311 319 255 236 288 329 319 354 118 329 21 299 95 60 48 306 313 303 335 354 54 30 160 15 34 84 33 21 351 174 157 178 125 190 19 4 52 251 284 247 251 262 261 263 266 230 241 260 262 261 255 254 248 250
160 239 331 313 28 106 77 122 95 47 116 320 44 299 294 230 65 1 32 322 58 355 101 46 342 44 141 136 93 53 318 72 12 73 359 227 356 200 339 355 346 23 44 298 86 291 35 338 114 35 3 334 343 344 5 321 67 81 33 346 50 70 63 149 108 100 84 216 162 104 264 291 271 315 292 275 300 295 273 259 214 253 268 266 266 265 260 259
112 295 248 309 7 52 101 181 128 141 134 129 97 50 352 12 307 60 122 5 353 127 85 348 4 269 29 67 77 222 322 96 156 343 114 280 271 353 321 15 337 37 337 263 338 300 87 265 66 96 100 54 0 340 293 309 271 283 138 340 47 80 87 17 102 0 73 267 124 156 255 255 273 300 321 331 345 320 288 261 271 230 261 276 278 272 272 269
51 110 310 357 16 42 71 71 87 124 132 156 63 282 118 83 6 337 128 14 145 93 55 186 339 43 55 43 24 18 7 351 92 291 39 330 309 323 272 323 28 344 329 86 28 73 116 90 86 147 147 181 203 209 253 100 347 39 301 115 245 54 110 93 102 84 236 184 190 237 190 306 308 310 333 313 345 314 309 320 310 299 283 271 267 274 271 265
143 82 345 16 336 48 64 21 63 59 154 184 99 198 37 103 231 356 204 12 351 112 40 46 269 46 335 64 7 35 357 348 359 85 357 287 267 266 296 320 304 344 344 145 33 90 77 60 13 138 188 202 186 196 201 283 198 226 177 256 210 160 147 105 156 260 176 80 304 263 210 182 260 286 283 297 300 295 281 277 295 295 283 274 275 279 282 277
72 236 97 235 128 188 61 4 93 90 46 71 125 60 146 95 42 124 6 105 149 340 84 323 44 37 327 89 105 58 342 14 19 20 330 225 325 321 337 319 38 338 358 7 340 106 124 104 258 96 274 245 248 248 263 348 224 199 196 187 193 190 154 156 228 201 153 173 219 209 167 248 272 270 281 286 283 284 287 289 282 282 287 289 293 289 284 280
102 144 140 293 98 282 146 170 103 110 84 100 117 103 110 127 146 201 170 319 32 351 40 98 350 341 341 309 97 124 353 61 342 314 124 322 15 325 358 338 240 14 26 15 9 93 88 28 207 183 283 312 289 258 211 190 238 283 230 226 221 170 207 206 228 203 184 236 261 281 287 269 263 277 287 280 290 277 280 286 290 291 283 288 290 281 276 275
216 128 79 10 84 118 257 43 79 67 63 357 94 297 142 165 137 264 1 99 52 325 351 87 174 99 303 45 116 95 288 141 154 272 225 156 327 86 254 194 297 337 30 29 336 291 93 314 127 166 359 316 322 41 61 114 133 285 265 229 217 212 241 233 261 239 10 298 280 280 284 283 279 213 250 277 316 297 304 293 275 278 292 295 296 292 287 282
110 168 157 121 64 336 41 15 58 90 91 340 82 222 110 194 175 164 102 348 88 168 343 159 160 124 35 48 47 76 269 177 147 175 207 164 111 293 85 288 151 320 350 358 16 328 50 163 66 68 49 329 1 32 301 70 325 243 287 275 221 180 224 201 196 205 166 219 110 113 301 259 275 283 292 284 304 291 273 277 284 283 279 282 279 278 277 275
69 350 76 104 92 308 123 11 356 72 61 222 141 193 161 210 173 143 72 30 48 56 227 146 176 105 15 54 23 311 298 174 152 134 140 131 82 70 43 74 33 2 334 38 344 40 42 116 33 19 67 269 255 104 315 336 340 340 296 245 191 198 187 205 269 224 218 143 147 200 234 219 226 92 353 297 283 284 275 267 277 281 267 248 259 267 270 273